Tracking 28565 objects as of 3-Mar-2024
HD Live streaming from Space Station
objects crossing your sky now

N-1 R/B

Track N-1 R/B now!
10-day predictions


NORAD ID: 10675
Int'l Code: 1978-018B
Perigee: 976.4 km
Apogee: 1,220.9 km
Inclination: 69.4 °
Period: 107.1 minutes
Semi major axis: 7469 km
RCS: 1.3828 m2 (large)
Launch date: February 16, 1978
Source: Japan (JPN)
Launch site: TANEGASHIMA SPACE CENTER (TNSTA)

Note: This is a ROCKET BODY
Your satellite tracking list
Your tracking list is empty




NASA's NSSDC Master Catalog

Two Line Element Set (TLE):
1 10675U 78018B   24063.49740588  .00000008  00000-0  93906-4 0  9992
2 10675  69.3580  88.6141 0163639 277.7505 195.0804 13.44775594259654
Source of the keplerian elements: AFSPC